Location: Gibsondale
(40.9931°N, 80.2478°W)
Time: 16:19:42
(UTC+00:00)

OAO 2 Rocket - Pass Details

Date: 29 October 2020
Orbit: 676 x 746 km, 35.0° (Epoch: 27 November)

Event Time Altitude Azimuth Distance (km) Brightness Sun altitude
Rises 23:37:12 0° 256° (WSW) 3,067 8.4 -15.1°
Reaches altitude 10° 23:39:43 10° 249° (WSW) 2,139 7.0 -15.6°
Maximum altitude 23:44:25 42° 179° (S) 969 4.0 -16.5°
Enters shadow 23:46:57 24° 123° (ESE) 1,411 4.4 -17.0°
